ARABSAT 6A

Last updated on Thu Jul 18 2019 04:08:16 GMT+0000 (Coordinated Universal Time)

1 44186U 19021A 19198.82245281 .00000144 00000-0 00000+0 0 9994 2 44186 0.0320 83.6847 0000826 84.4858 93.7678 1.00277207 892

Satellite not in orbit

ARABSAT 6A